Temperature
20 21 21 20 20 20 20 20 20 20 20 20 19 19 19 19 19 19 19 19 19 19 19 19 19 19 19 19 19 19 19 19 19 19 19 20 19 19 19 19 19 19 19
21 21 21 20 20 20 20 20 20 20 20 20 19 19 19 19 19 19 19 19 19 19 19 19 19 19 19 19 19 19 19 19 19 19 19 19 19 19 19 19 19 19 19
21 22 21 21 20 20 20 20 20 20 20 20 19 19 19 19 19 19 19 19 19 19 19 19 19 19 19 19 19 19 19 19 19 19 19 19 19 19 19 19 19 19 19
21 22 21 21 20 20 20 20 20 19 19 19 19 19 19 19 19 19 19 19 18 18 18 18 18 18 19 19 19 19 19 19 19 18 18 18 19 19 19 19 19 19 19
20 21 21 21 21 20 20 20 20 19 19 19 19 19 19 19 19 19 19 19 18 18 18 18 18 18 18 18 19 19 19 19 19 18 18 18 19 19 19 19 19 19 19
20 20 21 21 21 20 20 20 19 19 19 19 19 19 19 19 19 19 19 19 18 18 18 18 18 18 18 18 18 18 19 18 18 18 18 18 18 18 19 19 19 19 19
20 20 21 21 21 20 20 19 19 19 19 19 19 19 19 19 19 19 19 19 19 18 18 18 18 18 18 18 19 19 19 18 18 18 18 18 18 18 18 19 19 19 19
21 20 21 21 20 20 20 19 19 19 19 19 19 19 18 18 19 19 18 18 18 18 18 18 18 18 18 18 19 19 19 18 18 18 18 18 18 18 18 18 18 18 18
21 20 21 21 20 20 20 19 19 19 19 19 19 18 18 18 18 19 18 18 18 19 18 18 18 18 18 18 19 19 19 18 18 18 18 18 19 19 18 18 18 18 18
22 21 20 20 20 20 20 19 19 19 19 19 19 19 18 18 18 18 18 18 19 19 19 18 18 18 19 19 19 19 19 18 18 18 18 18 19 19 19 18 18 18 18
23 22 21 20 20 19 19 19 19 19 19 19 19 19 19 18 18 18 17 18 19 19 19 19 18 18 19 19 19 19 19 19 18 18 18 18 18 19 19 19 18 18 18
23 22 21 21 20 20 19 19 19 19 19 19 19 19 19 18 17 17 17 18 19 19 19 19 19 19 19 18 19 19 19 19 19 18 18 18 18 18 19 19 19 19 19
23 23 22 21 21 20 19 19 19 19 19 19 18 18 19 18 18 18 18 18 19 19 19 19 19 19 19 18 19 19 19 19 19 18 18 18 18 18 18 19 19 19 19
24 23 22 22 21 20 20 19 19 19 19 19 18 18 18 18 18 18 18 18 18 18 18 18 18 19 19 19 19 19 19 19 18 18 18 17 18 18 18 18 18 19 19
24 24 23 22 22 21 20 20 19 19 19 19 19 18 18 18 19 19 19 18 18 18 18 18 19 19 19 19 19 19 19 18 18 17 17 17 17 18 17 17 18 18 18
25 24 24 23 22 21 21 20 20 19 19 19 19 19 19 19 19 19 19 19 19 19 18 19 19 19 19 19 19 19 18 18 17 17 17 17 17 17 17 17 17 17 18
25 25 24 23 23 22 22 21 20 20 19 19 19 19 19 19 19 19 19 19 19 19 19 19 19 19 18 18 18 18 18 18 17 17 17 17 17 17 17 17 17 17 17
24 24 24 24 23 23 22 21 21 20 20 19 19 19 19 19 19 19 19 19 19 19 19 19 19 18 18 18 18 18 18 18 18 17 17 17 17 17 17 17 17 17 17
23 24 24 24 23 23 23 22 21 21 20 20 19 19 19 19 19 19 19 19 19 19 19 18 18 18 18 18 18 18 18 18 18 18 18 18 18 17 17 17 17 17 17
22 22 23 23 23 23 22 22 21 21 20 20 19 19 19 19 19 19 19 19 19 18 18 18 18 18 18 18 18 18 18 18 18 18 18 18 18 17 17 17 17 17 17
21 21 22 22 23 22 22 22 21 21 20 20 19 19 19 19 19 19 18 18 18 18 18 18 18 17 17 17 17 18 18 18 18 18 18 18 18 18 17 17 17 17 17
19 20 21 22 22 22 22 21 21 21 20 20 19 19 19 19 18 18 18 18 18 18 17 17 17 17 17 17 17 17 17 17 18 18 18 18 18 18 18 17 17 17 17
18 18 19 20 21 22 22 22 21 20 20 19 19 19 18 18 18 18 18 18 17 17 17 17 17 17 17 17 17 17 17 17 17 17 17 17 17 17 17 17 17 17 17
17 17 18 19 19 20 21 21 21 20 19 19 19 18 18 18 18 18 17 17 17 17 17 17 17 17 17 17 17 17 17 17 17 17 17 17 17 17 17 17 17 17 17
16 16 17 18 18 19 20 20 20 20 19 19 18 18 17 17 17 17 17 17 17 17 17 17 17 17 16 17 17 17 17 16 16 16 16 17 17 17 17 17 17 17 17
15 15 16 16 17 18 18 19 19 19 18 18 17 17 17 16 16 17 17 17 17 17 17 16 16 16 16 16 16 16 16 16 16 16 16 16 16 16 16 16 17 17 17
Wind_Speed
13 16 16 15 14 14 13 13 13 13 12 12 11 11 12 12 11 11 10 10 9 9 8 7 6 7 7 7 7 6 6 7 7 6 6 7 8 9 10 9 7 7 7
17 18 17 16 15 14 13 13 12 12 11 11 11 11 12 11 11 10 10 10 10 9 9 8 7 7 8 9 9 8 6 6 5 4 5 7 8 9 11 12 12 10 9
19 18 17 16 15 14 13 12 11 11 11 11 11 11 11 10 10 10 10 10 10 10 10 9 8 8 9 10 9 8 7 5 2 1 1 6 9 10 11 11 12 11 10
19 18 17 17 15 13 13 12 11 11 11 10 11 11 11 10 10 10 10 10 10 10 10 9 8 8 9 10 9 8 6 3 1 3 2 7 8 9 9 10 11 11 11
17 17 19 18 15 13 12 11 11 10 10 10 11 11 11 11 11 11 11 11 11 11 11 10 9 8 9 9 8 7 4 1 3 4 5 11 10 7 7 8 9 9 10
17 17 19 18 16 14 12 11 11 10 11 11 10 10 10 10 10 10 11 11 12 11 11 11 10 9 8 8 7 6 3 1 4 4 9 10 9 6 6 6 6 7 8
16 17 18 17 16 14 12 11 11 10 11 11 10 9 9 9 9 10 11 11 11 11 10 10 10 9 8 8 7 6 3 1 4 1 10 10 8 6 5 4 4 5 6
16 17 17 16 15 13 12 12 11 11 11 11 10 9 9 8 9 10 11 12 11 10 9 8 7 8 8 7 6 5 3 2 2 4 11 11 8 6 5 4 3 3 3
15 16 15 15 14 13 12 12 12 12 12 12 11 10 9 8 9 10 11 12 11 9 8 6 5 5 6 6 5 3 3 3 3 4 12 10 8 7 5 5 3 3 2
12 15 16 16 16 14 13 13 13 13 12 12 11 11 10 9 9 10 12 11 10 9 7 5 4 4 5 6 5 4 4 5 4 8 12 10 9 7 5 4 4 3 3
9 10 13 13 14 15 15 15 14 13 13 12 11 11 11 11 12 11 11 11 9 8 7 6 5 6 6 7 7 7 7 8 6 9 11 9 7 5 4 3 3 3 3
9 9 9 11 11 11 11 14 12 12 12 12 12 13 12 12 11 11 15 12 10 8 7 7 7 8 9 9 10 9 8 11 5 10 10 8 5 3 2 3 2 2 2
11 10 10 10 10 9 7 9 8 9 12 13 12 15 13 11 10 12 11 10 10 10 9 9 9 10 12 10 10 9 4 5 7 11 9 7 4 1 2 3 3 3 2
11 11 10 10 9 9 8 6 5 5 6 7 10 14 12 6 7 9 9 12 11 10 10 10 9 12 10 9 5 4 6 4 9 10 9 6 3 0 2 3 4 4 3
10 10 11 11 11 9 8 6 6 5 7 9 10 12 12 5 5 3 5 9 10 11 7 4 5 3 2 3 2 5 5 8 8 9 9 5 3 1 0 1 3 4 4
9 10 10 10 10 11 10 8 6 6 7 8 8 9 11 8 4 4 4 4 5 7 8 6 3 3 2 3 4 4 3 6 6 7 11 8 5 4 3 2 1 3 4
3 5 9 10 10 12 13 11 7 5 8 6 7 11 12 10 7 4 5 6 4 6 7 4 2 4 4 3 1 2 3 4 2 4 8 10 9 7 6 5 3 2 2
5 4 3 8 9 9 9 10 7 6 6 4 8 9 10 11 9 5 3 5 4 5 3 3 3 2 3 2 3 1 2 3 2 1 3 9 10 9 8 7 6 5 4
5 6 4 4 7 8 8 8 7 7 7 5 6 6 7 9 9 4 3 3 4 3 2 3 2 1 2 2 2 2 1 3 2 3 5 6 10 11 11 9 9 7 6
7 7 7 5 7 7 7 7 6 6 7 6 5 6 6 5 6 5 4 3 3 3 2 1 3 1 2 0 2 2 2 2 2 3 2 2 4 10 11 11 10 8 8
9 8 9 8 7 6 6 7 7 7 6 6 6 7 7 5 5 5 4 3 1 3 4 2 2 2 1 2 2 3 3 2 4 4 3 3 2 6 8 10 11 11 9
13 12 12 10 8 7 6 7 7 8 7 6 6 6 7 6 5 5 6 4 2 2 2 2 3 2 2 2 2 1 2 4 4 3 3 3 4 3 4 9 12 13 12
11 13 14 14 13 8 7 6 6 5 6 6 7 5 5 6 6 4 4 5 4 4 3 4 4 6 5 5 4 3 3 4 2 3 3 4 5 3 3 2 5 12 14
12 12 14 14 14 12 7 5 8 7 6 6 6 5 4 4 4 5 3 3 4 4 5 6 7 6 7 6 4 3 4 4 3 2 3 3 5 4 2 2 2 3 11
12 11 12 13 12 11 8 4 6 6 5 5 6 7 5 3 3 4 3 2 1 1 4 7 6 6 5 5 4 3 3 2 3 3 3 3 3 1 3 2 2 3 6
12 12 11 11 11 10 9 5 3 7 7 8 7 7 6 4 3 4 4 2 1 2 3 4 3 4 4 5 4 4 3 2 3 2 3 4 4 4 4 4 3 3 5
Wind_Direction
129 132 140 134 128 124 121 119 117 115 114 112 109 105 100 96 93 93 95 94 92 94 98 106 114 122 123 119 108 98 90 88 79 69 63 61 57 50 45 40 46 74 74
129 132 140 136 133 130 126 122 120 119 119 115 110 106 100 97 94 91 95 95 92 91 92 97 104 114 120 120 116 110 106 103 98 88 88 84 71 61 56 55 61 68 69
128 134 141 140 138 135 131 127 125 124 122 118 115 111 106 104 101 94 90 93 94 91 89 91 96 107 119 124 123 120 116 109 105 75 89 101 88 69 63 62 64 65 66
132 141 144 144 143 141 139 135 133 130 127 124 121 115 113 110 104 99 94 92 94 94 92 92 97 106 118 126 127 125 120 117 22 314 40 99 90 78 72 67 66 66 63
136 143 140 149 149 148 147 145 143 142 137 133 127 122 118 112 106 102 98 94 94 92 90 88 94 106 118 126 132 132 126 121 313 317 59 90 90 86 80 75 72 70 66
137 137 144 154 156 158 158 156 155 154 148 142 135 132 128 121 115 110 105 99 94 91 87 85 87 98 114 127 132 135 143 252 312 340 68 96 99 90 83 82 77 72 70
140 137 149 156 161 166 168 168 166 162 156 151 147 145 141 134 129 124 117 109 100 93 87 83 82 87 101 117 128 136 151 262 283 30 86 92 92 84 75 76 79 77 72
139 139 147 157 164 170 174 173 173 170 166 162 158 155 152 146 143 137 130 122 112 103 95 87 85 87 97 111 124 141 161 253 243 125 103 92 79 72 64 60 66 81 87
141 140 148 160 166 172 177 177 177 177 175 171 165 161 156 152 148 144 140 133 125 118 109 101 100 104 112 124 135 166 209 250 281 129 109 96 84 73 66 57 52 72 98
150 149 157 165 169 173 179 183 183 183 181 177 171 166 160 159 158 154 151 142 138 134 129 127 130 139 142 152 175 214 251 279 257 115 109 105 96 86 76 66 58 61 79
155 153 158 163 168 174 177 177 181 185 184 177 175 173 170 179 177 177 163 151 155 152 153 163 174 179 179 189 206 225 249 253 204 113 103 110 106 104 104 94 77 63 63
164 163 155 162 164 170 172 158 176 182 178 187 184 179 196 208 193 171 149 160 167 171 180 196 203 207 209 208 220 224 245 250 174 106 97 103 104 120 144 143 130 112 90
172 169 168 168 167 159 145 157 179 174 169 197 193 184 200 201 183 146 159 162 180 190 201 206 214 221 215 210 202 201 223 345 66 96 96 93 94 152 209 197 179 170 174
172 171 174 172 169 161 156 163 167 161 167 184 196 200 198 189 197 171 173 175 184 199 208 195 214 219 218 182 204 172 134 67 69 97 97 90 84 96 230 220 204 190 191
165 172 178 174 175 167 152 161 177 163 169 187 199 211 197 180 201 185 178 169 184 191 180 235 241 194 71 77 54 47 83 91 87 99 117 113 105 88 102 220 207 198 201
166 180 170 176 178 169 163 181 185 171 170 184 188 214 200 184 187 172 196 157 195 175 169 216 226 104 81 64 35 30 42 96 110 133 139 139 125 103 91 87 144 193 203
169 191 168 177 187 184 177 179 175 174 176 181 183 211 202 185 188 179 204 158 193 177 184 213 119 107 111 112 150 325 71 49 41 121 146 155 144 120 105 97 103 122 155
1 327 191 184 190 189 173 170 173 183 172 171 177 204 207 187 190 188 182 148 169 165 164 114 66 100 133 167 184 187 136 114 264 17 226 168 153 139 125 116 114 115 120
338 320 298 221 201 199 180 171 173 176 165 169 173 188 210 191 192 165 133 119 149 127 134 140 145 158 148 167 161 156 240 175 175 227 254 161 149 153 143 134 124 121 124
327 299 280 253 218 211 192 179 172 173 172 168 168 178 195 182 171 126 115 125 131 131 128 115 133 107 53 59 279 214 202 184 225 236 310 340 196 159 151 153 145 135 133
335 315 291 272 234 216 199 187 176 178 173 166 166 170 173 170 156 126 128 146 121 141 157 172 115 95 28 333 316 328 320 254 244 205 195 256 266 146 152 170 168 156 148
343 336 318 301 274 236 216 201 192 176 174 167 162 158 158 165 168 154 152 158 154 122 122 142 123 141 214 247 225 215 314 319 290 263 196 182 274 187 207 201 173 162 166
343 340 333 327 316 285 232 200 195 182 171 164 165 161 162 166 167 159 162 169 173 171 183 199 187 183 205 232 234 180 181 229 276 299 250 206 224 239 232 257 191 171 159
349 342 334 330 326 316 295 220 189 179 180 172 160 146 155 159 149 147 141 152 175 179 199 215 213 203 202 219 240 231 214 201 178 277 310 272 230 208 212 277 280 182 161
354 349 340 333 331 328 317 279 195 165 155 142 138 138 134 118 106 109 108 99 125 194 222 234 227 203 196 208 219 221 245 272 236 197 253 293 301 225 197 248 259 255 167
359 356 351 346 344 346 352 3 117 133 133 127 128 132 121 104 83 89 95 92 31 308 269 251 203 188 189 207 215 211 203 218 237 207 221 248 264 270 228 212 230 240 191
Height
1514 1515 1518 1520 1522 1524 1526 1528 1530 1531 1533 1534 1535 1536 1537 1538 1539 1540 1541 1543 1544 1545 1546 1548 1549 1550 1551 1552 1553 1554 1555 1556 1557 1557 1557 1557 1557 1557 1556 1556 1556 1556 1556
1513 1516 1518 1520 1523 1525 1527 1529 1531 1533 1534 1535 1536 1537 1538 1539 1541 1542 1543 1544 1545 1546 1547 1548 1549 1551 1552 1553 1554 1555 1556 1557 1558 1558 1558 1559 1559 1559 1558 1558 1558 1558 1558
1513 1516 1519 1521 1524 1526 1528 1530 1532 1534 1535 1536 1537 1538 1540 1541 1542 1543 1544 1545 1546 1547 1548 1549 1550 1551 1552 1554 1555 1556 1557 1558 1559 1559 1559 1559 1560 1560 1560 1560 1559 1559 1559
1514 1517 1520 1522 1525 1527 1529 1532 1533 1535 1536 1537 1539 1540 1541 1542 1543 1544 1545 1546 1547 1548 1549 1550 1551 1552 1553 1554 1555 1556 1558 1559 1560 1560 1560 1560 1560 1561 1561 1561 1561 1560 1560
1516 1518 1520 1523 1526 1528 1530 1532 1534 1536 1537 1538 1540 1541 1542 1544 1545 1546 1547 1547 1548 1549 1550 1551 1551 1552 1553 1555 1556 1557 1558 1560 1561 1561 1561 1561 1561 1562 1562 1562 1562 1561 1561
1518 1519 1521 1524 1526 1529 1531 1533 1535 1537 1538 1539 1541 1542 1544 1545 1546 1547 1548 1548 1549 1550 1550 1551 1552 1553 1554 1555 1556 1557 1559 1560 1561 1561 1561 1561 1562 1562 1562 1562 1562 1562 1562
1520 1520 1523 1525 1527 1529 1532 1533 1535 1537 1538 1540 1541 1543 1544 1545 1547 1547 1548 1549 1550 1550 1551 1552 1553 1554 1555 1555 1556 1558 1559 1560 1561 1562 1562 1562 1562 1562 1562 1562 1562 1563 1563
1521 1521 1524 1526 1528 1530 1532 1534 1535 1537 1539 1540 1542 1543 1545 1546 1547 1548 1548 1549 1550 1551 1552 1553 1554 1555 1555 1556 1557 1558 1559 1560 1561 1562 1562 1562 1562 1563 1563 1563 1563 1563 1563
1523 1523 1524 1527 1528 1530 1532 1533 1535 1537 1539 1540 1542 1543 1545 1546 1547 1548 1548 1549 1550 1551 1552 1553 1554 1555 1556 1557 1558 1559 1560 1561 1562 1562 1562 1562 1563 1563 1563 1563 1563 1564 1564
1524 1525 1525 1527 1529 1530 1532 1534 1535 1537 1539 1540 1542 1543 1545 1546 1547 1548 1548 1549 1550 1551 1552 1553 1554 1555 1556 1557 1559 1559 1560 1561 1562 1562 1562 1562 1563 1563 1563 1563 1563 1564 1564
1526 1527 1527 1528 1529 1531 1532 1533 1535 1536 1538 1540 1542 1543 1545 1546 1548 1548 1549 1550 1550 1551 1552 1553 1554 1556 1557 1558 1559 1560 1561 1561 1563 1562 1561 1562 1562 1562 1562 1563 1563 1563 1564
1525 1527 1528 1529 1530 1532 1533 1533 1535 1536 1537 1539 1541 1543 1545 1546 1548 1549 1549 1550 1551 1551 1552 1553 1554 1555 1557 1558 1559 1561 1561 1562 1563 1561 1561 1561 1561 1561 1561 1562 1562 1563 1563
1523 1525 1527 1529 1530 1531 1532 1533 1535 1536 1537 1539 1541 1543 1545 1547 1548 1549 1550 1550 1551 1551 1552 1554 1555 1556 1556 1558 1560 1561 1562 1563 1562 1560 1561 1560 1560 1560 1560 1560 1561 1561 1562
1522 1524 1526 1528 1529 1531 1532 1533 1534 1535 1536 1538 1540 1543 1544 1546 1548 1549 1549 1549 1551 1551 1552 1554 1555 1556 1558 1560 1561 1562 1562 1562 1562 1560 1560 1560 1559 1558 1559 1559 1559 1560 1561
1520 1522 1524 1526 1528 1529 1531 1532 1533 1534 1535 1537 1539 1541 1544 1546 1548 1550 1550 1550 1551 1552 1553 1555 1556 1558 1559 1560 1561 1562 1562 1561 1561 1561 1560 1559 1558 1558 1558 1558 1559 1559 1560
1519 1521 1522 1525 1526 1527 1528 1530 1531 1532 1533 1535 1537 1539 1542 1544 1546 1548 1550 1551 1552 1553 1554 1555 1556 1557 1559 1559 1560 1561 1562 1561 1561 1560 1560 1559 1559 1558 1558 1558 1558 1559 1559
1517 1519 1520 1522 1524 1525 1526 1527 1529 1530 1531 1533 1534 1537 1540 1542 1544 1546 1548 1549 1551 1553 1554 1555 1556 1557 1558 1559 1560 1561 1561 1561 1561 1561 1560 1559 1559 1558 1558 1557 1558 1558 1558
1515 1517 1518 1519 1521 1523 1524 1524 1526 1528 1529 1531 1532 1535 1538 1540 1542 1544 1546 1547 1549 1551 1553 1554 1555 1556 1557 1558 1559 1560 1561 1561 1561 1561 1560 1559 1558 1558 1558 1557 1557 1558 1558
1513 1514 1515 1516 1517 1519 1521 1522 1524 1525 1526 1528 1529 1531 1534 1537 1540 1542 1543 1545 1547 1549 1551 1553 1554 1556 1557 1558 1559 1559 1560 1560 1560 1560 1560 1560 1559 1558 1558 1558 1558 1558 1558
1510 1511 1512 1512 1513 1515 1517 1518 1520 1522 1523 1524 1525 1528 1531 1533 1536 1538 1540 1543 1545 1547 1549 1551 1553 1554 1555 1556 1558 1558 1559 1559 1559 1559 1559 1560 1560 1559 1558 1558 1558 1558 1558
1509 1508 1508 1509 1510 1511 1511 1513 1514 1516 1518 1520 1521 1523 1526 1529 1532 1534 1536 1539 1542 1544 1546 1549 1550 1552 1553 1555 1556 1557 1557 1558 1558 1558 1558 1558 1559 1559 1558 1558 1557 1558 1558
1506 1505 1505 1505 1506 1507 1507 1507 1508 1509 1512 1514 1517 1519 1521 1524 1528 1531 1533 1536 1539 1541 1543 1546 1547 1548 1550 1552 1553 1554 1555 1556 1556 1556 1556 1557 1557 1558 1557 1558 1557 1556 1557
1506 1504 1501 1500 1500 1500 1501 1502 1502 1503 1505 1509 1511 1513 1517 1520 1523 1527 1530 1532 1535 1537 1539 1542 1543 1545 1546 1549 1550 1552 1552 1552 1553 1554 1554 1555 1555 1556 1556 1557 1557 1556 1555
1505 1502 1499 1497 1495 1495 1495 1495 1496 1496 1498 1499 1505 1507 1512 1516 1519 1522 1526 1529 1531 1533 1535 1537 1539 1540 1542 1544 1546 1548 1549 1550 1551 1551 1552 1553 1553 1553 1554 1555 1556 1556 1554
1504 1500 1497 1494 1492 1491 1490 1491 1492 1492 1494 1496 1500 1504 1508 1512 1515 1518 1521 1524 1527 1529 1531 1533 1534 1536 1538 1540 1542 1544 1545 1546 1547 1549 1549 1550 1551 1551 1551 1552 1553 1553 1553
1502 1498 1494 1491 1489 1488 1487 1487 1488 1489 1492 1495 1497 1501 1503 1507 1511 1513 1515 1519 1523 1526 1528 1529 1531 1533 1535 1537 1538 1540 1541 1542 1544 1545 1546 1546 1547 1548 1548 1548 1549 1550 1551